Location: Terra Rouge Observatory
(46.0000°N, 62.7500°W)
Time: 21:25:46
(UTC-04:00)

Amateur Radio Satellites - All Passes

Search period start: 08 February 2016 20:55
Search period end: 09 February 2016 20:55
Location: Terra Rouge Observatory, 46.0000°N, 62.7500°W

Satellite Date Start Highest point End Downlink Frequencies (MHz)
Time Altitude Azimuth
ZACube-1 08 Feb 21:02:57 21:07:10 72° 258° (WSW) 21:11:21 437.345
AIST 1 08 Feb 21:03:07 21:06:43 24° 71° (ENE) 21:10:17
AO-85 08 Feb 21:06:05 21:08:40 14° 254° (WSW) 21:11:10 145.980
Cosmos 2499 08 Feb 21:09:12 21:17:48 79° 80° (E) 21:25:42 435.465 / 435.565
FUNcube-1 08 Feb 21:12:51 21:17:00 59° 259° (W) 21:21:07 145.935
VELOX 1 08 Feb 21:13:21 21:15:04 12° 58° (ENE) 21:16:49 145.980
50 SAT 08 Feb 21:16:05 21:17:13 11° 61° (ENE) 21:18:22 437.505
CINEMA 3 08 Feb 21:26:00 21:26:52 10° 272° (W) 21:27:44 145.822/145.860
AISAT 08 Feb 21:28:21 21:31:18 18° 61° (ENE) 21:34:14 437.250
ISS 08 Feb 21:28:46 21:31:58 54° 22° (NNE) 21:35:10 145.825
HUMSAT D 08 Feb 21:33:47 21:37:51 75° 75° (ENE) 21:41:57 437.325/437.525
CUBEBUG 2 08 Feb 21:40:02 21:42:52 17° 268° (W) 21:45:39 437.445
UWE-3 08 Feb 21:43:16 21:46:28 20° 267° (W) 21:49:37 435.000/436.395/437.385
ESTCUBE 1 08 Feb 21:43:46 21:47:28 25° 65° (ENE) 21:51:11 437.505/2401.250
AIST 2 08 Feb 21:44:06 21:46:31 15° 327° (NNW) 21:48:57 435.215
UKube-1 08 Feb 21:48:16 21:51:42 23° 64° (ENE) 21:55:08 .
Oscar 11 08 Feb 21:49:13 21:52:23 20° 268° (W) 21:55:34 145.826/435.025
PCSat 08 Feb 21:51:01 21:54:15 16° 256° (WSW) 21:57:30 145.827
CUBEBUG 1 08 Feb 21:51:28 21:54:54 23° 64° (ENE) 21:58:22 437.445
ANTELSAT 08 Feb 21:52:54 21:56:20 22° 94° (E) 21:59:48 437.575/2403.000
DX 1 08 Feb 21:57:15 22:01:09 32° 67° (ENE) 22:05:05 434.975-435.025
TIGRISAT 08 Feb 22:00:08 22:03:45 25° 95° (E) 22:07:22 435.000
SPROUT 08 Feb 22:02:26 22:03:39 11° 58° (ENE) 22:04:52 437.525
DELFI C3 08 Feb 22:20:23 22:22:43 15° 269° (W) 22:25:04 145.870
QB50P1 08 Feb 22:22:47 22:24:02 11° 88° (E) 22:25:18 145.935-145.965
RS-15 08 Feb 22:30:21 22:40:54 37° 254° (WSW) 22:51:36 29.354- 29.394
AIST 1 08 Feb 22:40:28 22:44:23 32° 270° (W) 22:48:14
UNISAT 6 08 Feb 22:43:48 22:48:08 76° 102° (ESE) 22:52:32 437.425
GONETS M04 08 Feb 22:45:58 22:50:24 15° 288° (WNW) 22:54:52
VELOX 1 08 Feb 22:46:24 22:50:53 89° 264° (W) 22:55:23 145.980
50 SAT 08 Feb 22:47:03 22:50:43 67° 258° (WSW) 22:54:27 437.505
AISAT 08 Feb 23:02:56 23:07:22 58° 259° (W) 23:11:48 437.250
Cosmos 2499 08 Feb 23:03:38 23:09:51 23° 282° (WNW) 23:15:46 435.465 / 435.565
ISS 08 Feb 23:05:27 23:08:17 27° 220° (SW) 23:11:05 145.825
POLYITAN 1 08 Feb 23:12:40 23:16:37 38° 98° (E) 23:20:32 437.675
QB50P2 08 Feb 23:13:21 23:17:21 40° 98° (E) 23:21:19 145.880/145.840
HUMSAT D 08 Feb 23:13:29 23:14:02 10° 272° (W) 23:14:34 437.325/437.525
ESTCUBE 1 08 Feb 23:19:53 23:24:06 38° 263° (W) 23:28:22 437.505/2401.250
BUGSAT 1 08 Feb 23:23:17 23:26:36 24° 94° (E) 23:29:53 437.445
UKube-1 08 Feb 23:23:30 23:27:33 39° 262° (W) 23:31:39 .
CUBEBUG 1 08 Feb 23:26:46 23:30:58 41° 262° (W) 23:35:12 437.445
ANTELSAT 08 Feb 23:29:10 23:33:10 38° 291° (WNW) 23:37:14 437.575/2403.000
DX 1 08 Feb 23:33:38 23:37:22 27° 265° (W) 23:41:08 434.975-435.025
SPROUT 08 Feb 23:34:38 23:38:57 90° 74° (ENE) 23:43:17 437.525
TIGRISAT 08 Feb 23:36:37 23:40:30 33° 292° (WNW) 23:44:25 435.000
POPSAT HIP 1 08 Feb 23:43:20 23:47:34 81° 105° (ESE) 23:51:45 437.405
TISAT 1 08 Feb 23:48:48 23:52:54 50° 71° (ENE) 23:57:00 437.305
NANOSAT C BR1 08 Feb 23:48:52 23:53:05 90° 341° (NNW) 23:57:17 145.865
ITUPSAT 1 08 Feb 23:50:11 23:52:25 13° 57° (ENE) 23:54:38 437.325
DUCHIFAT 1 08 Feb 23:50:54 23:55:06 89° 286° (WNW) 23:59:17 145.980
CUSAT 1 08 Feb 23:53:02 23:54:18 10° 73° (ENE) 23:55:33 437.405
QB50P1 08 Feb 23:56:09 00:00:21 73° 286° (WNW) 00:04:32 145.935-145.965
BEESAT 08 Feb 23:58:46 00:01:37 16° 59° (ENE) 00:04:28 436.000
Oscar 19 09 Feb 00:17:19 00:19:16 12° 87° (E) 00:21:14 437.125/150
UNISAT 6 09 Feb 00:22:19 00:24:19 13° 300° (WNW) 00:26:21 437.425
BEESAT 3 09 Feb 00:36:49 00:39:30 17° 36° (NE) 00:42:10 437.485
SWISSCUBE 09 Feb 00:48:50 00:53:23 47° 69° (ENE) 00:57:58 437.505
POLYITAN 1 09 Feb 00:48:59 00:52:13 22° 295° (WNW) 00:55:27 437.675
QB50P2 09 Feb 00:49:45 00:52:56 21° 296° (WNW) 00:56:06 145.880/145.840
BUGSAT 1 09 Feb 00:58:26 01:02:02 31° 292° (WNW) 01:05:36 437.445
BEESAT 2 09 Feb 00:58:41 01:01:32 18° 37° (NE) 01:04:22 435.950
POPSAT HIP 1 09 Feb 01:21:11 01:22:45 12° 301° (WNW) 01:24:17 437.405
ITUPSAT 1 09 Feb 01:24:46 01:29:32 90° 124° (SE) 01:34:22 437.325
TISAT 1 09 Feb 01:26:09 01:28:51 17° 269° (W) 01:31:35 437.305
NANOSAT C BR1 09 Feb 01:27:15 01:28:10 11° 302° (WNW) 01:29:05 145.865
CUSAT 1 09 Feb 01:27:16 01:34:52 51° 92° (E) 01:42:33 437.405
DUCHIFAT 1 09 Feb 01:29:18 01:30:08 11° 302° (WNW) 01:30:59 145.980
BEESAT 09 Feb 01:34:06 01:38:51 73° 257° (WSW) 01:43:38 436.000
Cosmos 2491 09 Feb 01:36:02 01:44:19 44° 71° (ENE) 01:52:35 435.465 / 435.565
JAS-2 09 Feb 01:37:05 01:42:38 45° 97° (E) 01:47:41 435.910
PHONESAT 2.4 09 Feb 01:37:30 01:39:29 15° 158° (SSE) 01:41:27 2401.200-2431.200
STARS 09 Feb 01:44:51 01:47:07 14° 59° (ENE) 01:49:23 437.465
MOZHAYETS 4 09 Feb 01:45:35 01:45:59 10° 56° (NE) 01:46:22
DANDE 09 Feb 01:50:32 01:57:50 46° 89° (E) 02:05:48 436.750
Oscar 19 09 Feb 01:54:10 01:59:20 89° 123° (ESE) 02:04:28 437.125/150
KKS-1 09 Feb 01:56:46 02:00:40 30° 67° (ENE) 02:04:34 437.445
BEESAT 3 09 Feb 02:13:46 02:17:46 77° 236° (SW) 02:21:41 437.485
Gurwin Techsat 1B 09 Feb 02:15:34 02:20:49 56° 100° (E) 02:26:02 435.225
AO-7 09 Feb 02:27:30 02:32:21 16° 87° (E) 02:37:11 29.400- 29.500
SWISSCUBE 09 Feb 02:27:46 02:31:26 22° 267° (W) 02:35:08 437.505
YUBILEINY 09 Feb 02:29:58 02:37:38 36° 84° (E) 02:45:21 435.215
BEESAT 2 09 Feb 02:35:53 02:39:53 70° 237° (WSW) 02:43:50 435.950
AIST 2 09 Feb 02:44:26 02:47:46 23° 40° (NE) 02:51:05 435.215
Cosmos 2504 09 Feb 02:59:56 03:00:42 10° 67° (ENE) 03:01:27 435.465 / 435.565
ITAMSAT 1 09 Feb 03:00:19 03:05:35 74° 103° (ESE) 03:10:49 435.822/435.867
ITUPSAT 1 09 Feb 03:06:47 03:08:05 11° 273° (W) 03:09:22 437.325
CUSAT 1 09 Feb 03:09:46 03:17:19 43° 291° (WNW) 03:24:51 437.405
PHONESAT 2.4 09 Feb 03:13:17 03:16:11 29° 174° (S) 03:19:06 2401.200-2431.200
MOZHAYETS 4 09 Feb 03:17:47 03:22:18 74° 75° (ENE) 03:26:55
STARS 09 Feb 03:18:31 03:22:56 74° 258° (WSW) 03:27:21 437.465
JAS-2 09 Feb 03:22:35 03:27:30 29° 299° (WNW) 03:32:03 435.910
Cosmos 2491 09 Feb 03:33:02 03:41:12 46° 272° (W) 03:49:23 435.465 / 435.565
KKS-1 09 Feb 03:33:16 03:37:12 30° 264° (W) 03:41:10 437.445
DANDE 09 Feb 03:33:16 03:40:49 48° 290° (WNW) 03:49:00 436.750
Oscar 19 09 Feb 03:35:11 03:37:56 15° 304° (WNW) 03:40:40 437.125/150
M-CUBED/EXP-1 PRIME 09 Feb 03:52:36 03:55:06 19° 101° (E) 03:57:40 437.505
Gurwin Techsat 1B 09 Feb 03:56:16 04:00:24 23° 299° (WNW) 04:04:32 435.225
CUBESAT XI-V 09 Feb 03:56:29 04:00:09 23° 64° (ENE) 04:03:50 437.345
AUBIESAT-1 09 Feb 04:03:15 04:05:56 21° 101° (ESE) 04:08:43 437.475
AO-7 09 Feb 04:18:07 04:26:31 77° 108° (ESE) 04:34:48 29.400- 29.500
AIST 2 09 Feb 04:22:31 04:26:33 53° 239° (WSW) 04:30:32 435.215
YUBILEINY 09 Feb 04:25:25 04:34:01 57° 285° (WNW) 04:42:44 435.215
SO-50 09 Feb 04:40:15 04:44:20 27° 114° (ESE) 04:48:28 436.795
ITAMSAT 1 09 Feb 04:41:01 04:44:29 18° 302° (WNW) 04:47:56 435.822/435.867
Cosmos 2504 09 Feb 04:43:37 04:51:51 53° 89° (E) 05:00:23 435.465 / 435.565
HORYU 2 09 Feb 04:48:14 04:52:42 81° 104° (ESE) 04:57:10 437.375
PHONESAT 2.4 09 Feb 04:50:14 04:53:02 26° 191° (S) 04:55:50 2401.200-2431.200
MOZHAYETS 4 09 Feb 04:58:01 05:00:02 13° 272° (W) 05:02:05
CUSAT 1 09 Feb 05:00:04 05:01:48 11° 312° (NW) 05:03:31 437.405
DANDE 09 Feb 05:22:39 05:26:07 13° 313° (NW) 05:29:38 436.750
M-CUBED/EXP-1 PRIME 09 Feb 05:26:53 05:29:48 28° 296° (WNW) 05:32:49 437.505
CUBESAT XI-V 09 Feb 05:32:46 05:37:16 45° 262° (W) 05:41:49 437.345
AUBIESAT-1 09 Feb 05:37:39 05:40:33 26° 296° (WNW) 05:43:32 437.475
BRITE-PL 09 Feb 05:40:42 05:42:27 12° 85° (E) 05:44:09 437.365/2234.400
STRAND 1 09 Feb 05:48:22 05:53:08 42° 68° (ENE) 05:57:58 437.568
PRISM 09 Feb 05:59:39 06:02:12 16° 61° (ENE) 06:04:47 437.425
CUTE-I 09 Feb 06:10:01 06:15:09 43° 99° (E) 06:20:15 437.470
AO-7 09 Feb 06:11:41 06:18:34 30° 308° (NW) 06:25:25 29.400- 29.500
SO-50 09 Feb 06:19:48 06:24:36 50° 313° (NW) 06:29:27 436.795
Cubesat XI-IV 09 Feb 06:23:19 06:28:38 56° 101° (E) 06:33:55 437.490
HORYU 2 09 Feb 06:26:36 06:28:40 13° 302° (WNW) 06:30:44 437.375
PHONESAT 2.4 09 Feb 06:28:42 06:29:39 11° 207° (SSW) 06:30:37 2401.200-2431.200
YUBILEINY 09 Feb 06:29:13 06:33:13 14° 310° (NW) 06:37:15 435.215
Cosmos 2504 09 Feb 06:37:29 06:45:29 41° 291° (WNW) 06:53:47 435.465 / 435.565
GOMX 1 09 Feb 06:49:54 06:53:45 28° 94° (E) 06:57:25 467.674
LilacSat-2 09 Feb 06:51:18 06:55:04 73° 286° (WNW) 06:58:51 437.200
BRITE-PL 09 Feb 07:16:49 07:21:43 80° 286° (WNW) 07:26:12 437.365/2234.400
CANX-2 09 Feb 07:19:02 07:21:16 14° 89° (E) 07:23:30 2200.000
O/OREOS (USA 219) 09 Feb 07:26:41 07:30:03 21° 102° (ESE) 07:33:26 437.305
STRAND 1 09 Feb 07:28:07 07:32:27 27° 266° (W) 07:36:50 437.568
PRISM 09 Feb 07:33:01 07:37:07 56° 259° (W) 07:41:15 437.425
HO-68 09 Feb 07:33:28 07:39:25 27° 93° (E) 07:45:20 435.675
CINEMA 3 09 Feb 07:37:59 07:40:28 15° 90° (E) 07:42:56 145.822/145.860
CUTE-I 09 Feb 07:50:24 07:55:01 30° 296° (WNW) 07:59:36 437.470
GONETS M04 09 Feb 07:55:40 08:02:42 29° 81° (E) 08:09:46
Cosmos 2499 09 Feb 08:00:37 08:04:10 13° 70° (ENE) 08:07:42 435.465 / 435.565
SO-50 09 Feb 08:03:31 08:06:16 15° 334° (NNW) 08:09:01 436.795
Cubesat XI-IV 09 Feb 08:04:08 08:08:20 24° 299° (WNW) 08:12:31 437.490
COMPASS 1 09 Feb 08:04:27 08:07:40 21° 93° (E) 08:10:53 437.405
CUTE 1.7 + AOD 2 09 Feb 08:08:27 08:12:30 39° 98° (E) 08:16:32 437.475
UNISAT 6 09 Feb 08:12:13 08:13:15 11° 58° (ENE) 08:14:18 437.425
DOVE 4 09 Feb 08:13:06 08:17:25 79° 285° (WNW) 08:21:34 437.250
SEEDS 09 Feb 08:16:28 08:20:26 36° 97° (E) 08:24:23 437.485
GOMX 1 09 Feb 08:27:54 08:31:53 31° 293° (WNW) 08:35:39 467.674
AAUSAT CUBESAT 2 09 Feb 08:33:31 08:37:23 34° 97° (E) 08:41:13 437.432
ZACube-1 09 Feb 08:49:34 08:52:25 17° 92° (E) 08:55:15 437.345
CANX-2 09 Feb 08:53:17 08:57:33 61° 286° (WNW) 09:01:46 2200.000
ANTELSAT 09 Feb 08:54:16 08:57:54 27° 67° (ENE) 09:01:31 437.575/2403.000
BRITE-PL 09 Feb 08:57:45 08:59:16 11° 305° (NW) 09:00:44 437.365/2234.400
FUNcube-1 09 Feb 08:58:49 09:02:00 21° 93° (E) 09:05:13 145.935
TIGRISAT 09 Feb 09:01:18 09:05:03 30° 68° (ENE) 09:08:48 435.000
O/OREOS (USA 219) 09 Feb 09:04:51 09:09:08 44° 300° (WNW) 09:13:30 437.305
NANOSAT C BR1 09 Feb 09:11:11 09:12:17 11° 58° (ENE) 09:13:24 145.865
DUCHIFAT 1 09 Feb 09:13:01 09:14:06 11° 58° (ENE) 09:15:10 145.980
CINEMA 3 09 Feb 09:13:56 09:17:57 50° 288° (WNW) 09:21:59 145.822/145.860
QB50P1 09 Feb 09:17:39 09:19:40 13° 60° (ENE) 09:21:41 145.935-145.965
HO-68 09 Feb 09:20:31 09:27:39 66° 292° (WNW) 09:34:45 435.675
CUBEBUG 2 09 Feb 09:26:17 09:30:29 81° 103° (ESE) 09:34:43 437.445
UWE-3 09 Feb 09:28:49 09:32:58 62° 101° (E) 09:37:12 435.000/436.395/437.385
Oscar 11 09 Feb 09:32:24 09:36:44 62° 102° (ESE) 09:41:01 145.826/435.025
AIST 1 09 Feb 09:36:48 09:38:51 13° 83° (E) 09:40:54
COMPASS 1 09 Feb 09:39:27 09:43:24 39° 290° (WNW) 09:47:20 437.405
AO-85 09 Feb 09:41:06 09:44:53 20° 109° (ESE) 09:48:45 145.980
CUTE 1.7 + AOD 2 09 Feb 09:44:49 09:48:08 22° 295° (WNW) 09:51:26 437.475
UNISAT 6 09 Feb 09:44:59 09:49:19 89° 66° (ENE) 09:53:37 437.425
Cosmos 2499 09 Feb 09:46:51 09:55:23 62° 91° (E) 10:04:07 435.465 / 435.565
GONETS M04 09 Feb 09:50:09 09:58:47 68° 282° (WNW) 10:07:31
SEEDS 09 Feb 09:52:35 09:55:58 23° 294° (WNW) 09:59:21 437.485
DELFI C3 09 Feb 09:53:54 09:57:55 59° 101° (E) 10:01:55 145.870
POLYITAN 1 09 Feb 10:07:36 10:11:34 40° 70° (ENE) 10:15:32 437.675
QB50P2 09 Feb 10:08:15 10:12:15 42° 70° (ENE) 10:16:15 145.880/145.840
AAUSAT CUBESAT 2 09 Feb 10:09:20 10:12:44 24° 294° (WNW) 10:16:08 437.432
BUGSAT 1 09 Feb 10:15:24 10:18:51 25° 66° (ENE) 10:22:16 437.445
ZACube-1 09 Feb 10:24:55 10:28:57 46° 288° (WNW) 10:33:02 437.345
ANTELSAT 09 Feb 10:30:43 10:34:34 31° 264° (W) 10:38:23 437.575/2403.000
FUNcube-1 09 Feb 10:34:30 10:38:25 39° 290° (WNW) 10:42:22 145.935
VELOX 1 09 Feb 10:35:36 10:38:04 14° 90° (E) 10:40:30 145.980
POPSAT HIP 1 09 Feb 10:37:56 10:42:11 82° 76° (ENE) 10:46:26 437.405
TIGRISAT 09 Feb 10:38:03 10:41:45 27° 265° (W) 10:45:26 435.000
NANOSAT C BR1 09 Feb 10:43:08 10:47:23 89° 274° (W) 10:51:38 145.865
DUCHIFAT 1 09 Feb 10:44:55 10:49:09 89° 234° (SW) 10:53:23 145.980
RS-15 09 Feb 10:45:00 10:54:37 36° 105° (ESE) 11:04:36 29.354- 29.394
PCSat 09 Feb 10:50:09 10:55:16 45° 114° (ESE) 11:00:26 145.827
HUMSAT D 09 Feb 10:50:13 10:54:23 80° 284° (WNW) 10:58:35 437.325/437.525
QB50P1 09 Feb 10:50:41 10:54:55 72° 258° (WSW) 10:59:10 145.935-145.965
AISAT 09 Feb 10:51:22 10:54:49 22° 93° (E) 10:58:13 437.250
CUBEBUG 2 09 Feb 11:05:07 11:06:32 12° 300° (WNW) 11:07:57 437.445
UWE-3 09 Feb 11:06:43 11:09:00 14° 299° (WNW) 11:11:19 435.000/436.395/437.385
UKube-1 09 Feb 11:08:13 11:11:57 28° 96° (E) 11:15:40 .
ESTCUBE 1 09 Feb 11:09:40 11:13:53 37° 97° (E) 11:18:06 437.505/2401.250
Oscar 11 09 Feb 11:09:48 11:12:24 16° 299° (WNW) 11:14:58 145.826/435.025
HO-68 09 Feb 11:10:02 11:14:04 16° 313° (NW) 11:18:06 435.675
AIST 1 09 Feb 11:11:31 11:15:53 64° 281° (W) 11:20:17
CUBEBUG 1 09 Feb 11:13:00 11:16:51 29° 95° (E) 11:20:38 437.445
DX 1 09 Feb 11:18:38 11:22:47 41° 99° (E) 11:26:53 434.975-435.025
AO-85 09 Feb 11:19:27 11:24:52 76° 309° (NW) 11:30:24 145.980
SPROUT 09 Feb 11:20:06 11:22:05 13° 89° (E) 11:24:04 437.525
SO-50 09 Feb 11:29:11 11:31:45 14° 25° (NNE) 11:34:17 436.795
DELFI C3 09 Feb 11:30:10 11:32:23 14° 298° (WNW) 11:34:37 145.870
Oscar 19 09 Feb 11:35:31 11:39:40 25° 62° (ENE) 11:43:49 437.125/150
Cosmos 2499 09 Feb 11:41:11 11:49:02 35° 293° (WNW) 11:57:02 435.465 / 435.565
POLYITAN 1 09 Feb 11:44:23 11:47:33 20° 267° (W) 11:50:43 437.675
QB50P2 09 Feb 11:45:09 11:48:15 20° 267° (W) 11:51:22 145.880/145.840
50 SAT 09 Feb 11:50:01 11:53:48 70° 285° (WNW) 11:57:35 437.505
BUGSAT 1 09 Feb 11:50:18 11:54:07 33° 263° (W) 11:57:54 437.445
JAS-2 09 Feb 11:50:26 11:56:59 34° 63° (ENE) 12:03:02 435.910
GONETS M04 09 Feb 11:52:32 11:57:34 16° 307° (NW) 12:02:40
Gurwin Techsat 1B 09 Feb 12:01:40 12:05:08 18° 58° (ENE) 12:08:39 435.225
CUSAT 1 09 Feb 12:03:03 12:08:50 35° 66° (ENE) 12:13:19 437.405
VELOX 1 09 Feb 12:10:35 12:14:58 62° 288° (WNW) 12:19:19 145.980
AISAT 09 Feb 12:27:20 12:31:28 40° 291° (WNW) 12:35:35 437.250
DANDE 09 Feb 12:29:44 12:36:41 39° 66° (ENE) 12:42:09 436.750
PCSat 09 Feb 12:33:53 12:38:49 34° 314° (NW) 12:43:47 145.827
YUBILEINY 09 Feb 12:36:31 12:42:51 21° 57° (ENE) 12:49:06 435.215
ITAMSAT 1 09 Feb 12:43:06 12:47:00 22° 61° (ENE) 12:50:56 435.822/435.867
UKube-1 09 Feb 12:44:11 12:48:01 31° 293° (WNW) 12:51:49 .
ESTCUBE 1 09 Feb 12:46:47 12:50:34 26° 295° (WNW) 12:54:19 437.505/2401.250
CUBEBUG 1 09 Feb 12:49:17 12:53:06 30° 293° (WNW) 12:56:53 437.445
SPROUT 09 Feb 12:54:16 12:58:31 65° 287° (WNW) 13:02:43 437.525
RS-15 09 Feb 12:54:47 13:06:01 75° 310° (NW) 13:17:57 29.354- 29.394
DX 1 09 Feb 12:55:23 12:58:44 22° 296° (WNW) 13:02:05 434.975-435.025
AO-85 09 Feb 13:02:13 13:06:19 21° 329° (NNW) 13:10:24 145.980
TISAT 1 09 Feb 13:05:49 13:09:58 64° 101° (E) 13:14:07 437.305
SO-50 09 Feb 13:08:43 13:13:27 48° 47° (NE) 13:18:00 436.795
Oscar 19 09 Feb 13:13:40 13:18:41 50° 260° (W) 13:23:45 437.125/150
ITUPSAT 1 09 Feb 13:23:37 13:27:06 20° 92° (E) 13:30:34 437.325
AO-7 09 Feb 13:28:35 13:35:45 33° 54° (NE) 13:42:54 29.400- 29.500
BEESAT 09 Feb 13:32:14 13:36:07 24° 94° (E) 13:39:58 436.000
JAS-2 09 Feb 13:34:11 13:41:44 58° 260° (W) 13:48:38 435.910
Gurwin Techsat 1B 09 Feb 13:39:11 13:44:30 76° 257° (WSW) 13:49:51 435.225
CUSAT 1 09 Feb 13:45:38 13:51:03 33° 274° (W) 13:55:17 437.405
DANDE 09 Feb 14:12:58 14:19:40 40° 272° (W) 14:24:57 436.750
HORYU 2 09 Feb 14:15:00 14:16:59 13° 58° (ENE) 14:18:57 437.375
ITAMSAT 1 09 Feb 14:20:58 14:26:04 58° 259° (W) 14:31:14 435.822/435.867
PCSat 09 Feb 14:22:30 14:23:57 11° 338° (NNW) 14:25:24 145.827
SWISSCUBE 09 Feb 14:23:54 14:28:45 80° 104° (ESE) 14:33:33 437.505
YUBILEINY 09 Feb 14:32:14 14:41:09 83° 80° (E) 14:49:59 435.215
Cosmos 2504 09 Feb 14:34:00 14:40:43 24° 59° (ENE) 14:47:07 435.465 / 435.565
Cosmos 2491 09 Feb 14:40:26 14:48:34 46° 87° (E) 14:56:42 435.465 / 435.565
M-CUBED/EXP-1 PRIME 09 Feb 14:41:48 14:45:13 42° 66° (ENE) 14:48:28 437.505
TISAT 1 09 Feb 14:42:55 14:45:10 14° 299° (WNW) 14:47:25 437.305
AO-85 09 Feb 14:48:04 14:48:59 10° 353° (N) 14:49:54 145.980
SO-50 09 Feb 14:49:43 14:53:42 26° 246° (WSW) 14:57:34 436.795
AUBIESAT-1 09 Feb 14:52:04 14:55:31 45° 67° (ENE) 14:58:48 437.475
ITUPSAT 1 09 Feb 15:00:34 15:05:16 53° 290° (WNW) 15:09:57 437.325
STARS 09 Feb 15:06:35 15:09:24 17° 91° (E) 15:12:13 437.465
BEESAT 09 Feb 15:09:32 15:14:05 43° 291° (WNW) 15:18:36 436.000
RS-15 09 Feb 15:10:30 15:20:48 35° 340° (NNW) 15:31:36 29.354- 29.394
MOZHAYETS 4 09 Feb 15:11:36 15:14:17 15° 89° (E) 15:16:57
AO-7 09 Feb 15:19:38 15:27:57 69° 254° (WSW) 15:36:20 29.400- 29.500
KKS-1 09 Feb 15:21:08 15:25:21 41° 99° (E) 15:29:32 437.445
Gurwin Techsat 1B 09 Feb 15:24:50 15:25:21 10° 275° (W) 15:25:52 435.225
JAS-2 09 Feb 15:26:35 15:27:56 10° 277° (W) 15:29:16 435.910
ISS 09 Feb 15:46:38 15:49:14 22° 138° (SE) 15:51:51 145.825
HORYU 2 09 Feb 15:48:31 15:52:56 81° 258° (WSW) 15:57:23 437.375
O/OREOS (USA 219) 09 Feb 15:55:53 15:57:00 11° 42° (NE) 15:58:08 437.305
CUTE-I 09 Feb 15:57:26 16:00:21 15° 56° (NE) 16:03:16 437.470
SWISSCUBE 09 Feb 16:03:15 16:05:56 15° 302° (WNW) 16:08:35 437.505
Cubesat XI-IV 09 Feb 16:10:08 16:13:45 19° 58° (ENE) 16:17:23 437.490
M-CUBED/EXP-1 PRIME 09 Feb 16:18:03 16:20:02 14° 261° (W) 16:21:59 437.505
Cosmos 2504 09 Feb 16:26:36 16:35:22 86° 263° (W) 16:43:31 435.465 / 435.565
AUBIESAT-1 09 Feb 16:28:34 16:30:18 13° 262° (W) 16:32:01 437.475
AO-85 09 Feb 16:29:35 16:32:00 13° 18° (NNE) 16:34:21 145.980
YUBILEINY 09 Feb 16:30:27 16:36:51 23° 282° (WNW) 16:43:15 435.215
BEESAT 2 09 Feb 16:33:36 16:34:30 11° 109° (ESE) 16:35:24 435.950
Cosmos 2491 09 Feb 16:37:13 16:45:26 44° 289° (WNW) 16:53:42 435.465 / 435.565
STARS 09 Feb 16:41:51 16:46:06 52° 289° (WNW) 16:50:21 437.465
MOZHAYETS 4 09 Feb 16:47:17 16:51:54 65° 287° (WNW) 16:56:29
BRITE-PL 09 Feb 16:51:49 16:56:15 24° 63° (ENE) 17:00:34 437.365/2234.400
KKS-1 09 Feb 16:58:14 17:01:41 23° 296° (WNW) 17:05:08 437.445
AO-7 09 Feb 17:18:12 17:22:16 14° 275° (W) 17:26:21 29.400- 29.500
ISS 09 Feb 17:22:14 17:25:28 64° 336° (NNW) 17:28:42 145.825
CUBESAT XI-V 09 Feb 17:26:45 17:31:09 37° 97° (E) 17:35:29 437.345
RS-15 09 Feb 17:27:15 17:37:42 33° 15° (NNE) 17:48:26 29.354- 29.394
O/OREOS (USA 219) 09 Feb 17:32:48 17:37:23 64° 63° (ENE) 17:41:57 437.305
CUTE-I 09 Feb 17:34:18 17:39:38 88° 76° (ENE) 17:45:01 437.470
LilacSat-2 09 Feb 17:35:25 17:39:14 77° 76° (ENE) 17:43:04 437.200
BEESAT 3 09 Feb 17:44:18 17:48:17 86° 125° (SE) 17:52:18 437.485
DOVE 4 09 Feb 17:44:26 17:47:53 19° 63° (ENE) 17:51:13 437.250
Cubesat XI-IV 09 Feb 17:47:56 17:53:15 73° 257° (WSW) 17:58:37 437.490
PCSat 09 Feb 17:52:52 17:56:12 16° 32° (NNE) 17:59:31 145.827
STRAND 1 09 Feb 17:58:41 18:00:11 11° 86° (E) 18:01:40 437.568
GOMX 1 09 Feb 17:59:08 18:04:15 45° 70° (ENE) 18:09:08 467.674
GONETS M04 09 Feb 18:01:51 18:07:15 17° 54° (NE) 18:12:38
HO-68 09 Feb 18:05:11 18:11:04 28° 56° (NE) 18:16:57 435.675
BEESAT 2 09 Feb 18:07:44 18:11:45 85° 305° (NW) 18:15:49 435.950
AO-85 09 Feb 18:09:18 18:14:09 35° 41° (NE) 18:18:40 145.980
CANX-2 09 Feb 18:14:41 18:17:00 15° 61° (ENE) 18:19:19 2200.000
Cosmos 2504 09 Feb 18:21:47 18:27:22 19° 285° (WNW) 18:32:44 435.465 / 435.565
AIST 2 09 Feb 18:23:29 18:26:12 17° 112° (ESE) 18:28:57 435.215
BRITE-PL 09 Feb 18:28:40 18:34:19 60° 260° (W) 18:39:49 437.365/2234.400
CINEMA 3 09 Feb 18:41:41 18:45:10 22° 65° (ENE) 18:48:34 145.822/145.860
CUBEBUG 2 09 Feb 18:54:01 18:54:56 11° 59° (ENE) 18:55:53 437.445
COMPASS 1 09 Feb 18:58:01 19:01:04 20° 64° (ENE) 19:04:08 437.405
ISS 09 Feb 18:59:24 19:02:18 29° 356° (N) 19:05:13 145.825
CUTE 1.7 + AOD 2 09 Feb 19:03:29 19:07:23 38° 70° (ENE) 19:11:18 437.475
CUBESAT XI-V 09 Feb 19:04:26 19:08:23 27° 295° (WNW) 19:12:19 437.345
SEEDS 09 Feb 19:10:37 19:14:25 34° 69° (ENE) 19:18:14 437.485
PRISM 09 Feb 19:13:19 19:16:01 16° 92° (E) 19:18:41 437.425
O/OREOS (USA 219) 09 Feb 19:13:36 19:16:16 15° 261° (W) 19:18:55 437.305
CUTE-I 09 Feb 19:17:55 19:20:25 13° 273° (W) 19:22:55 437.470
DOVE 4 09 Feb 19:20:08 19:25:11 63° 259° (W) 19:30:00 437.250
BEESAT 3 09 Feb 19:24:04 19:26:36 16° 325° (NW) 19:29:09 437.485
AAUSAT CUBESAT 2 09 Feb 19:26:18 19:29:57 31° 68° (ENE) 19:33:38 437.432
STRAND 1 09 Feb 19:34:56 19:40:08 83° 104° (ESE) 19:45:19 437.568
PCSat 09 Feb 19:35:18 19:40:44 62° 54° (NE) 19:46:06 145.827
Cosmos 2499 09 Feb 19:36:13 19:43:09 27° 62° (ENE) 19:49:39 435.465 / 435.565
GOMX 1 09 Feb 19:37:55 19:42:27 27° 266° (W) 19:46:51 467.674
RS-15 09 Feb 19:41:01 19:53:04 65° 45° (NE) 20:05:19 29.354- 29.394
BEESAT 2 09 Feb 19:47:52 19:50:17 15° 326° (NW) 19:52:42 435.950
ZACube-1 09 Feb 19:48:06 19:51:06 19° 64° (ENE) 19:54:04 437.345
CANX-2 09 Feb 19:48:12 19:52:22 64° 259° (W) 19:56:35 2200.000
AO-85 09 Feb 19:49:55 19:54:49 44° 243° (WSW) 19:59:19 145.980
HO-68 09 Feb 19:51:05 19:58:13 69° 256° (WSW) 20:05:26 435.675
FUNcube-1 09 Feb 19:57:02 20:00:17 22° 66° (ENE) 20:03:32 145.935
GONETS M04 09 Feb 19:57:08 20:05:57 71° 78° (ENE) 20:14:45
AIST 2 09 Feb 20:00:11 20:04:18 58° 309° (NW) 20:08:26 435.215
HUMSAT D 09 Feb 20:11:53 20:12:51 11° 59° (ENE) 20:13:48 437.325/437.525
CINEMA 3 09 Feb 20:17:41 20:22:06 43° 261° (W) 20:26:21 145.822/145.860
CUBEBUG 2 09 Feb 20:26:37 20:30:57 90° 80° (E) 20:35:11 437.445
UWE-3 09 Feb 20:28:05 20:32:19 68° 75° (ENE) 20:36:29 435.000/436.395/437.385
Oscar 11 09 Feb 20:29:16 20:33:31 64° 74° (ENE) 20:37:48 145.826/435.025
COMPASS 1 09 Feb 20:32:27 20:36:23 41° 262° (W) 20:40:22 437.405
ISS 09 Feb 20:36:11 20:39:16 39° 16° (NNE) 20:42:21 145.825
CUTE 1.7 + AOD 2 09 Feb 20:40:09 20:43:22 21° 267° (W) 20:46:38 437.475
DELFI C3 09 Feb 20:42:26 20:46:16 47° 72° (ENE) 20:50:07 145.870
SEEDS 09 Feb 20:46:53 20:50:13 23° 267° (W) 20:53:36 437.485
PRISM 09 Feb 20:47:35 20:51:38 49° 289° (WNW) 20:55:39 437.425
